Regional Weather Roundup
Issued by NWS

Home | Current Version | Previous Version | Graphics & Text | Print | Product List | Glossary On
Versions: 1 2 3 4 5 6 7 8 9 10 11 12 13 14 15 16 17 18 19 20 21 22 23 24 25 26 27 28 29 30 31 32 33 34 35 36 37 38 39 40 41 42 43 44 45 46 47 48 49 50
000
ASUS43 KMPX 290601
RWRMN
WEATHER ROUNDUP FOR MINNESOTA
NATIONAL WEATHER SERVICE TWIN CITIES/CHANHASSEN MN
100 AM CDT THU SEP 29 2016


NOTE: "FAIR" INDICATES FEW OR NO CLOUDS BELOW 12,000 FEET WITH NO
SIGNIFICANT WEATHER AND/OR OBSTRUCTIONS TO VISIBILITY. N/A MEANS
CURRENT SKY AND/OR WEATHER CONDITIONS ARE NOT AVAILABLE.

MNZ060>063-068>070-290700-
   Twin Cities Metro

CITY           SKY/WX    TMP DP  RH WIND       PRES   REMARKS
TWIN CITIES    CLEAR     52  47  83 NE7       30.37S
6HR MIN TEMP:  52; 6HR MAX TEMP:  59;

ST PAUL        CLEAR     52  48  86 CALM      30.38S
CRYSTAL        CLEAR     48  44  86 N3        30.37S
BLAINE         CLEAR     50  50 100 N5        30.38R
LAKEVILLE      CLEAR     48  48 100 CALM      30.37S
EDEN PRAIRIE   CLEAR     52  48  86 NW3       30.37R
6HR MIN TEMP:  52; 6HR MAX TEMP:  60;

LAKEVILLE      CLEAR     48  48 100 CALM      30.37S
SOUTH ST PAUL  CLEAR     53  48  84 N3        30.37S
LAKE ELMO      FAIR      48  46  93 CALM      30.39R
$$
MNZ001>005-007-008-013>017-022>024-027-028-290700-
   Northwest Minnesota

CITY           SKY/WX    TMP DP  RH WIND       PRES   REMARKS
BEMIDJI        CLOUDY    49  46  90 CALM      30.43R
HALLOCK        CLEAR     45  43  93 E3        30.43R
ROSEAU         CLEAR     45  39  81 CALM      30.44S HAZE
THIEF RVR FALL CLEAR     48  45  89 SE5       30.44S
CROOKSTON      CLEAR     52  45  76 E3        30.43R
FOSSTON        CLEAR     43  39  87 CALM      30.44R
DETROIT LAKES  CLEAR     46  43  87 CALM      30.43S
MOORHEAD       CLEAR     46  45  93 SE3       30.43R
PARK RAPIDS    CLOUDY    56  42  59 SE5       30.42S
MAHNOMEN       FAIR      46  44  93 E5        30.43R
$$
MNZ006-009>011-018-025>026-290700-
   North Central Minnesota

CITY           SKY/WX    TMP DP  RH WIND       PRES   REMARKS
BAUDETTE       CLOUDY    48  46  93 CALM      30.44R
FLAG ISLAND    CLOUDY    57  50  77 S6        30.42S
INTL FALLS     CLOUDY    53  49  86 SE3       30.44R
6HR MIN TEMP:  53; 6HR MAX TEMP:  56;

WASKISH        CLOUDY    48  46  93 CALM      30.44R
BIG FORK       CLOUDY    52  50  93 CALM      30.43S
GRAND RAPIDS   CLOUDY    53  50  89 CALM      30.44R
ORR            CLOUDY    52  46  82 CALM      30.41S
COOK           CLOUDY    52  50  93 CALM      30.43S
WALKER         CLOUDY    51  47  86 CALM      30.42S
$$
MNZ012-019>021-037-290700-
   Northeast Minnesota

CITY           SKY/WX    TMP DP  RH WIND       PRES   REMARKS
DULUTH         CLOUDY    52  50  93 CALM      30.40S
6HR MIN TEMP:  51; 6HR MAX TEMP:  55;

ELY            CLOUDY    52  50  93 CALM      30.42S
HIBBING        CLOUDY    51  49  92 NW3       30.42S
EVELETH        CLOUDY    53  49  87 CALM      30.43S
DULUTH HARBOR  MOCLDY    55  52  88 NE3       30.41S
TWO HARBORS    CLOUDY    55  50  82 CALM      30.39S
SILVER BAY     CLOUDY    54  52  94 CALM      30.40S
GRAND MARAIS     N/A     55  51  86 CALM      30.41R
G MARAIS ARPRT CLOUDY    50  45  81 N6        30.43R
$$
MNZ029>031-032-039>041-046>048-054>057-064-290700-
   West Central Minnesota

CITY           SKY/WX    TMP DP  RH WIND       PRES   REMARKS
FERGUS FALLS   CLEAR     48  45  87 E3        30.44S
MORRIS         CLEAR     50  45  81 E3        30.41R
ALEXANDRIA     CLEAR     48  44  86 NE5       30.43S
ELBOW LAKE     FAIR      50  46  87 SE5       30.42S
WADENA         CLOUDY    54  45  71 CALM      30.42S
GLENWOOD       CLEAR     46  45  93 NE3       30.42R
BENSON         CLEAR     46  45  93 CALM      30.42R
ORTONVILLE     CLEAR     46  45  93 CALM      30.41R
MADISON        CLEAR     48  46  93 E5        30.41R
WILLMAR        MOCLDY    52  48  87 NE5       30.41S
$$
MNZ033>034-036-042>043-049>051-058-059-290700-
   Central Minnesota

CITY           SKY/WX    TMP DP  RH WIND       PRES   REMARKS
ST CLOUD       CLEAR     50  48  93 N3        30.40R
6HR MIN TEMP:  49; 6HR MAX TEMP:  57;

SAUK CENTRE    CLOUDY    53  47  78 CALM      30.41S
PAYNESVILLE    CLOUDY    52  51  97 CALM      30.41S
AITKIN         CLOUDY    54  48  82 CALM      30.40S
PINE RIVER     CLOUDY    52  48  87 CALM      30.44S
BRAINERD       CLOUDY    53  50  89 CALM      30.42R
STAPLES        CLOUDY    52  46  82 CALM      30.42S
LONG PRAIRIE   CLOUDY    54  45  71 NW3       30.42S
LITTLE FALLS   CLOUDY    52  46  82 CALM      30.41S
LITCHFIELD     CLEAR     52  48  87 CALM      30.41R
BUFFALO        CLEAR     50  46  88 N5        30.40S
MAPLE LAKE     CLEAR     49  48  95 N3        30.40S
HUTCHINSON     CLEAR     48  47  95 NW3       30.40R
$$
MNZ037-044-045-052-053-290700-
   East Central Minnesota

CITY           SKY/WX    TMP DP  RH WIND       PRES   REMARKS
PRINCETON      CLEAR     48  46  93 CALM      30.40S
MORA           CLEAR     48  45  87 CALM      30.42S
CAMBRIDGE      CLEAR     48  43  81 CALM      30.38S
MOOSE LAKE     CLOUDY    50  48  93 CALM      30.39S
HINCKLEY       FAIR      46  46 100 N3        30.41R
CLOQUET        CLOUDY    52  48  87 CALM      30.41R
MCGREGOR       CLOUDY    52  50  93 CALM      30.42S
$$
MNZ071>073-080-081-089-090-097-098-290700-
   Southwest Minnesota

CITY           SKY/WX    TMP DP  RH WIND       PRES   REMARKS
MONTEVIDEO     CLEAR     45  43  93 CALM      30.42S
GRANITE FALLS  CLEAR     49  46  90 NE5       30.41S
CANBY          CLEAR     42  41  97 CALM      30.42R
MARSHALL       CLEAR     43  41  93 CALM      30.40S
REDWOOD FALLS  CLEAR     51  46  83 N5        30.39R
OLIVIA         CLEAR     46  45  93 N5        30.39R
PIPESTONE      CLEAR     46  45  93 CALM      30.39S
WINDOM         CLEAR     45  43  93 N5        30.39R
WORTHINGTON    CLEAR     46  44  93 N6        30.39S
JACKSON        CLEAR     46  43  87 CALM      30.38R
TRACY          CLEAR     46  44  93 CALM      30.40R
$$
MNZ065>067-074>077-082>085-091>093-290700-
   South Central Minnesota

CITY           SKY/WX    TMP DP  RH WIND       PRES   REMARKS
MANKATO        CLEAR     49  47  93 NW7       30.37R
ST JAMES       CLEAR     46  46 100 CALM      30.38S
FAIRMONT       CLEAR     47  45  93 N6        30.37R
GLENCOE        CLEAR     49  48  98 CALM      30.38R
FARIBAULT      CLEAR     50  48  93 N5        30.37R
OWATONNA       CLEAR     48  45  87 CALM      30.36S
WASECA         CLEAR     52  48  87 N9        30.37S
ALBERT LEA     CLEAR     52  50  93 N6        30.35R
$$
MNZ078>079-086>088-094>096-290700-
   Southeast Minnesota

CITY           SKY/WX    TMP DP  RH WIND       PRES   REMARKS
ROCHESTER      CLEAR     51  50  96 N9        30.34R
6HR MIN TEMP:  51; 6HR MAX TEMP:  59;

RED WING       CLEAR     52  48  87 NW3       30.35R
DODGE CENTER   CLEAR     48  46  93 N5        30.35R
WINONA         CLEAR     55  52  88 NE9       30.32S
AUSTIN         CLEAR     48  46  93 N5        30.34R
PRESTON        CLEAR     50  48  92 N7        30.32S
$$
ABBREVIATIONS USED IN REMARKS
   TC - TEMPERATURES IN CELSIUS
  WCI - WIND CHILL INDEX
   HX - HEAT INDEX
  VSB - VISIBILITY
$$




USA.gov is the U.S. government's official web portal to all federal, state and local government web resources and services.